X  Close Light rain starting tomorrow afternoon.
Conditions Temperature Feels Precipitation Wind Wind Direction UV index Pressure
02:00 clear-night Clear 17° - 8-14 km/h SE SE - 1006,6
03:00 partly-cloudy-night Partly Cloudy 17° - 7-11 km/h SE SE - 1006,1
04:00 partly-cloudy-night Partly Cloudy 16° - 6-8 km/h SSE SSE - 1005,7
05:00 partly-cloudy-night Partly Cloudy 16° - 6-6 km/h SSE SSE - 1005,9
06:00 partly-cloudy-night Partly Cloudy 16° - 5-5 km/h SSE SSE - 1006,0
07:00 partly-cloudy-day Mostly Cloudy 16° - 5-6 km/h SSE SSE - 1006,8
08:00 partly-cloudy-day Mostly Cloudy 18° - 5-6 km/h South South uv-1 1007,2
09:00 cloudy Overcast 19° - 5-6 km/h SE SE uv-2 1007,4
10:00 cloudy Overcast 22° - 5-7 km/h East Easterly uv-3 1007,2
11:00 partly-cloudy-day Partly Cloudy 24° - 7-8 km/h ESE ESE uv-6 1006,9
12:00 partly-cloudy-day Partly Cloudy 25° 0.05 mm 5% 10-10 km/h ESE ESE uv-7 1006,1
13:00 partly-cloudy-day Partly Cloudy 26° 0.25 mm 8% 12-13 km/h SE SE uv-8 1005,7
14:00 partly-cloudy-day Mostly Cloudy 26° 0.57 mm 11% 15-18 km/h SE SE uv-7 1005,0
15:00 partly-cloudy-day Mostly Cloudy 25° 0.96 mm 21% 15-24 km/h SE SE uv-6 1004,7
16:00 partly-cloudy-day Mostly Cloudy 24° 0.99 mm 21% 17-31 km/h SE SE uv-5 1004,4
17:00 rain Possible Light Rain 22° 1.69 mm 37% 15-36 km/h SE SE uv-4 1004,7
18:00 cloudy Overcast 22° 0.46 mm 23% 14-36 km/h SE SE uv-2 1004,6
19:00 cloudy Overcast 22° 0.24 mm 15% 13-33 km/h ESE ESE uv-1 1004,9
20:00 rain Possible Light Rain 21° 1.65 mm 33% 11-30 km/h ESE ESE - 1005,4
21:00 rain Possible Light Rain 20° 1.85 mm 39% 11-27 km/h ESE ESE - 1005,7
22:00 rain Possible Light Rain 20° 2.06 mm 42% 13-24 km/h SE SE - 1006,1
23:00 rain Possible Light Rain 19° 2.44 mm 45% 13-23 km/h SSE SSE - 1006,5
00:00 rain Possible Light Rain 19° 0.91 mm 40% 15-24 km/h SSE SSE - 1006,5
01:00 rain Possible Light Rain 18° 0.8 mm 44% 16-26 km/h SSE SSE - 1006,3
02:00 rain Possible Drizzle 18° 0.28 mm 36% 18-28 km/h SSE SSE - 1005,8
03:00 rain Possible Drizzle 18° 0.17 mm 37% 19-28 km/h SSE SSE - 1005,5
04:00 rain Possible Light Rain 18° 0.55 mm 54% 18-29 km/h SSE SSE - 1005,3
05:00 rain Possible Light Rain 18° 1.23 mm 62% 18-29 km/h SSE SSE - 1005,3
06:00 rain Possible Light Rain 18° 1.14 mm 64% 19-31 km/h SSE SSE - 1005,4
07:00 rain Possible Light Rain 18° 0.76 mm 61% 21-33 km/h SSE SSE - 1005,6
08:00 rain Possible Light Rain 18° 0.9 mm 64% 22-36 km/h SSE SSE uv-1 1005,9
09:00 rain Light Rain 17° 1.11 mm 68% 24-38 km/h SSE SSE uv-2 1006,0
10:00 rain Light Rain 17° 1.39 mm 72% 26-41 km/h SSE SSE uv-3 1006,0
11:00 rain Light Rain 17° 1.43 mm 77% 27-43 km/h SSE SSE uv-4 1005,9
12:00 rain Light Rain 17° 1.37 mm 76% 29-43 km/h SSE SSE uv-5 1005,8
13:00 rain Light Rain 16° 1.53 mm 76% 30-44 km/h SSE SSE uv-5 1005,6
14:00 rain Light Rain 16° 1.42 mm 80% 31-44 km/h South South uv-5 1005,3
15:00 rain Light Rain 16° 1.44 mm 81% 31-45 km/h South South uv-5 1005,1
16:00 rain Light Rain 16° 1.45 mm 81% 30-46 km/h South South uv-4 1004,9
17:00 rain Light Rain 16° 1.4 mm 78% 29-47 km/h South South uv-3 1004,8
18:00 rain Light Rain 16° 1.44 mm 77% 27-46 km/h South South uv-2 1005,1
19:00 rain Light Rain 16° 1.37 mm 73% 25-45 km/h South South uv-1 1005,6
20:00 rain Possible Light Rain 16° 1.22 mm 65% 23-43 km/h South South - 1006,1
21:00 rain Possible Light Rain 16° 0.74 mm 59% 21-40 km/h South South - 1006,5
22:00 rain Possible Drizzle 16° 0.4 mm 56% 19-35 km/h South South - 1006,9
23:00 rain Possible Drizzle 16° 0.18 mm 47% 17-32 km/h South South - 1007,0
00:00 rain Possible Drizzle 16° 0.15 mm 39% 16-30 km/h SSW SSW - 1006,9
01:00 rain Possible Drizzle 16° 0.18 mm 36% 15-29 km/h SSW SSW - 1006,8
02:00 rain Possible Drizzle 15° 0.16 mm 33% 14-27 km/h SSW SSW - 1006,7